sat.trackr.live / text

‹ back to catalog

STARLINK-32020

NORAD 60201 · 2024-124U

PAYLOAD ACTIVE UNKNOWN

§ Identity

Operator
Country
US
Launch date
2024-07-03
Launch site
AFETR
Launch vehicle
Mass (kg)
RCS (m²)

Purposes: comms

External: N2YO · Heavens-Above · Gunter

§ Orbital elements

Epoch: 2026-05-25T04:51:31.923648Z

Period
94.11 min
Inclination
53.1609°
Eccentricity
0.0000951
Mean motion
15.30196707 rev/d
Perigee alt
474.6 km
Apogee alt
475.9 km
Semi-major
6,853.4 km
B*
9.5354e-6
RAAN
326.8488°
Arg perigee
96.0332°
Mean anomaly
264.0777°
Rev number
10,601

§ Raw data

STARLINK-320201 60201U 24124U   26145.20245282 -.00000077  00000+0  95354-5 0  99902 60201  53.1609 326.8488 0000951  96.0332 264.0777 15.30196707106012

JSON: /api/v1/satellites/60201 · /tle

For live sub-satellite position, see the globe view (requires WebGL).

§ Visibility from observer

Set your observer location to see the next 7 days of passes ≥ 10°. The values pass through the URL so the page stays shareable.

No JS? Fill the form by hand. The geolocation button needs JavaScript.